Champaign, IL

1:39 PM CDT on September 15, 2019 (GMT -0500)
Univ Of Illinois-Willard

Weather History for KCMI - May, 2019

Change the Weather History Date:

Tuesday, May 7, 2019

  Actual Average Record
Temperature  
Mean Temperature 62 °F 60 °F  
Max Temperature 74 °F 72 °F 89 °F (2014)
Min Temperature 50 °F 48 °F 39 °F (2017)
Degree Days  
Heating Degree Days 3 6  
Month to date heating degree days 40 50  
Since 1 July heating degree days 5803 5714  
Cooling Degree Days 0 1  
Month to date cooling degree days 0 7  
Year to date cooling degree days 3 18  
Growing Degree Days 12 (Base 50)    
Moisture  
Dew Point 53 °F    
Average Humidity 79    
Maximum Humidity 100    
Minimum Humidity 57    
Precipitation  
Precipitation T in 0.15 in 0.49 in (2002)
Month to date precipitation 0.37 1.12  
Year to date precipitation 12.51 11.73  
Sea Level Pressure  
Sea Level Pressure 30.10 in    
Wind  
Wind Speed 12 mph (NE)    
Max Wind Speed 22 mph    
Max Gust Speed 30 mph    
Visibility 9 miles    
Events      
T = Trace of Precipitation, MM = Missing Value Source: NWS Daily Summary

Daily Weather History Graph

Daily Weather History Graph

Search for Another Location

Airport or City:

Astronomy

May. 07, 2019 Rise Set
Actual Time 5:46 AM CDT 7:53 PM CDT
Civil Twilight 5:16 AM CDT 8:23 PM CDT
Nautical Twilight 4:39 AM CDT 9:00 PM CDT
Astronomical Twilight 3:59 AM CDT 9:40 PM CDT
Moon 7:52 AM CDT (5/7) 10:54 PM CDT (5/7)
Length of Visible Light 15h 07m
Length of Day
14h 07m
Waxing Crescent, 9% of the Moon is Illuminated
May 7
Waxing Crescent
May 11
First Quarter
May 18
Full
May 26
Last Quarter
Jun 3
New

Hourly Weather History & Observations

Time (CDT) Temp. Dew Point Humidity Pressure Visibility Wind Dir Wind Speed Gust Speed Precip Events Conditions
12:53 AM 55.9 °F 53.1 °F 90% 30.04 in 10.0 mi SSE 3.5 mph - N/A   Clear
1:53 AM 54.0 °F 52.0 °F 93% 30.05 in 10.0 mi North 3.5 mph - N/A   Clear
2:53 AM 55.9 °F 54.0 °F 93% 30.04 in 10.0 mi ENE 5.8 mph - N/A   Clear
3:53 AM 52.0 °F 51.1 °F 97% 30.05 in 6.0 mi NE 13.8 mph - N/A   Clear
4:53 AM 50.0 °F 48.0 °F 93% 30.06 in 7.0 mi NE 11.5 mph 19.6 mph N/A   Clear
5:53 AM 50.0 °F 48.0 °F 93% 30.09 in 7.0 mi ENE 9.2 mph - N/A   Clear
6:53 AM 51.1 °F 48.9 °F 92% 30.11 in 6.0 mi ENE 6.9 mph - N/A   Overcast
7:53 AM 53.1 °F 50.0 °F 89% 30.13 in 6.0 mi East 10.4 mph - N/A   Overcast
8:53 AM 55.9 °F 52.0 °F 87% 30.13 in 8.0 mi East 8.1 mph - N/A   Overcast
9:53 AM 60.1 °F 54.0 °F 80% 30.12 in 8.0 mi East 6.9 mph - N/A   Mostly Cloudy
10:53 AM 66.0 °F 55.9 °F 70% 30.12 in 10.0 mi NNE 8.1 mph - N/A   Scattered Clouds
11:53 AM 69.1 °F 55.9 °F 63% 30.12 in 10.0 mi NNE 10.4 mph - N/A   Clear
12:53 PM 71.1 °F 55.9 °F 59% 30.12 in 10.0 mi ENE 9.2 mph - N/A   Clear
1:53 PM 73.0 °F 57.0 °F 57% 30.11 in 10.0 mi NE 10.4 mph - N/A   Clear
2:53 PM 73.9 °F 57.0 °F 55% 30.10 in 10.0 mi ENE 10.4 mph - N/A   Partly Cloudy
3:53 PM 73.0 °F 57.9 °F 59% 30.09 in 10.0 mi NNE 12.7 mph - N/A   Partly Cloudy
4:53 PM 66.0 °F 57.9 °F 75% 30.10 in 9.0 mi NNE 17.3 mph - 0.00 in   Overcast
5:53 PM 63.0 °F 55.9 °F 78% 30.10 in 8.0 mi NNE 18.4 mph 29.9 mph N/A   Overcast
6:53 PM 61.0 °F 55.0 °F 81% 30.10 in 8.0 mi NNE 18.4 mph 26.5 mph N/A   Overcast
7:53 PM 59.0 °F 53.1 °F 81% 30.12 in 10.0 mi NNE 17.3 mph - N/A   Overcast
8:53 PM 57.0 °F 52.0 °F 83% 30.12 in 10.0 mi NE 20.7 mph 28.8 mph 0.00 in   Overcast
9:53 PM 57.0 °F 51.1 °F 81% 30.12 in 10.0 mi NE 19.6 mph 28.8 mph N/A   Overcast
10:53 PM 55.9 °F 51.1 °F 84% 30.12 in 10.0 mi NE 16.1 mph - N/A   Clear
11:53 PM 55.0 °F 51.1 °F 86% 30.10 in 10.0 mi ENE 16.1 mph - N/A   Clear